Flag for Mexico

Past Weather in Merida, Yucatán, Mexico — Yesterday and Last 2 Weeks

Now
86 °F

Scattered clouds.


Feels Like: 99 °F
Forecast: 90 / 77 °F
Wind: 6 mph from South

Location: Aerop. Internacional Merida - Yuc
Current Time: Sep 20, 2020 at 10:33:53 am
Latest Report: Sep 20, 2020 at 9:45 am
Visibility: 7 mi
Pressure29.92 "Hg
Humidity: 79%
Dew Point: 79 °F
Location of MeridaLocation

Past Weather in Merida — Graph

°F

Merida Temperature Yesterday

Maximum temperature yesterday: 91 °F (at 12:47 pm)
Minimum temperature yesterday: 75 °F (at 6:55 am)
Average temperature yesterday: 84 °F

High & Low Weather Summary for the Past Weeks

 TemperatureHumidityPressure
High97 °F (Sep 9, 3:46 pm)100% (Sep 7, 6:55 am)30.01 "Hg (Sep 7, 6:55 am)
Low73 °F (Sep 8, 6:48 am)47% (Sep 9, 3:46 pm)29.75 "Hg (Sep 8, 4:45 pm)
Average84 °F77%29.87 "Hg
* Reported Sep 5 7:44 am — Sep 20 7:45 am, Merida. Weather by CustomWeather, © 2020

Note: Actual official high and low records may vary slightly from our data, if they occured in-between our weather recording intervals... More about our weather records

Merida Weather History for the Previous 24 Hours

Scroll right to see more
 ConditionsComfort  
Time TempWeatherWind HumidityBarometerVisibility
7:45 am
Sun, Sep 20
79 °FScattered clouds.5 mph89%29.89 "Hg6 mi
7:16 am77 °FScattered clouds.No wind94%29.88 "Hg6 mi
6:16 am77 °FPassing clouds.No wind94%29.86 "Hg7 mi
5:07 am77 °FPassing clouds.3 mph94%29.84 "Hg7 mi
3:56 am77 °FPassing clouds.No wind94%29.84 "Hg7 mi
2:54 am77 °FPassing clouds.No wind89%29.84 "Hg7 mi
11:53 pm
Sat, Sep 19
79 °FPassing clouds.5 mph94%29.87 "Hg7 mi
10:57 pm79 °FPassing clouds.7 mph94%29.89 "Hg7 mi
9:41 pm81 °FPassing clouds.5 mph89%29.89 "Hg6 mi
8:45 pm81 °FPassing clouds.7 mph89%29.87 "Hg6 mi
7:49 pm81 °FPassing clouds.No wind89%29.84 "Hg7 mi
6:50 pm84 °FPartly sunny.5 mph79%29.84 "Hg7 mi
5:54 pm86 °FPartly sunny.No wind75%29.81 "Hg6 mi
4:53 pm90 °FThunderstorms. Broken clouds.7 mph63%29.80 "Hg6 mi
3:49 pm91 °FPartly sunny.12 mph59%29.84 "Hg7 mi
2:50 pm90 °FPartly sunny.7 mph67%29.81 "Hg7 mi
1:53 pm91 °FPartly sunny.7 mph59%29.83 "Hg7 mi
12:47 pm91 °FPartly sunny.7 mph63%29.86 "Hg7 mi
11:57 am90 °FPartly sunny.7 mph67%29.88 "Hg7 mi
10:55 am88 °FPartly sunny.7 mph70%29.80 "Hg7 mi
Weather by CustomWeather, © 2020

See weather overview